Total_Precipitation_Accumulation
1.19 1.25 1.29 1.33 1.40 1.40 1.46 1.57 1.75 1.73 1.51 1.30 1.20 1.21 1.27 1.36 1.56 1.39 1.31 1.29 1.12 1.01 0.99 1.03 1.07 1.09 1.19 1.32 1.43 1.49 1.52 1.54 1.57 1.65 1.80 1.95 2.11 2.24
1.04 1.07 1.09 1.15 1.33 1.44 1.51 1.61 1.75 1.81 1.71 1.36 1.20 1.17 1.23 1.27 1.50 1.35 1.34 1.41 1.19 1.00 0.92 1.01 1.07 1.06 1.10 1.13 1.15 1.21 1.29 1.33 1.36 1.43 1.54 1.65 1.81 1.99
0.90 0.93 0.97 1.05 1.16 1.23 1.36 1.50 1.69 1.85 1.87 1.55 1.29 1.21 1.26 1.33 1.37 1.30 1.21 1.14 1.07 1.07 0.92 0.93 1.14 1.30 1.21 1.10 1.04 1.04 1.09 1.15 1.20 1.27 1.40 1.52 1.61 1.72
0.81 0.85 0.82 0.87 0.99 1.09 1.21 1.32 1.47 1.61 1.73 1.64 1.40 1.28 1.27 1.35 1.42 1.41 1.21 1.06 0.97 1.04 0.94 0.89 1.01 1.38 1.46 1.23 1.14 1.06 1.00 1.00 1.03 1.11 1.22 1.33 1.41 1.54
0.70 0.77 0.80 0.89 0.99 1.08 1.19 1.23 1.31 1.36 1.55 1.57 1.41 1.34 1.32 1.35 1.48 1.42 1.20 1.15 0.86 0.82 0.84 0.87 0.99 1.53 1.87 1.64 1.37 1.25 1.09 0.98 0.90 0.96 1.06 1.14 1.19 1.24
0.60 0.65 0.72 0.85 0.95 1.07 1.13 1.21 1.33 1.43 1.51 1.57 1.51 1.48 1.47 1.44 1.51 1.55 1.38 1.21 0.96 0.69 0.77 0.85 1.03 1.50 2.06 2.22 1.83 1.55 1.34 1.17 1.03 0.95 0.94 0.95 0.93 0.91
0.62 0.61 0.59 0.65 0.77 0.85 0.92 1.11 1.36 1.53 1.53 1.56 1.55 1.55 1.55 1.61 1.54 1.46 1.43 1.29 1.06 0.84 0.86 0.85 1.09 1.74 2.31 2.59 2.41 1.86 1.44 1.24 1.10 0.99 0.94 0.89 0.85 0.80
0.66 0.63 0.54 0.51 0.54 0.60 0.69 0.83 1.06 1.30 1.45 1.53 1.53 1.53 1.51 1.57 1.55 1.48 1.49 1.48 1.32 0.99 0.94 0.99 1.28 2.10 2.67 2.89 2.77 2.05 1.45 1.23 1.13 1.04 0.97 0.90 0.83 0.78
0.70 0.72 0.58 0.47 0.56 0.64 0.66 0.66 0.76 0.95 1.24 1.48 1.56 1.45 1.53 1.61 1.65 1.64 1.56 1.57 1.49 1.17 1.10 1.22 1.50 2.11 2.56 2.94 2.84 2.14 1.62 1.34 1.23 1.14 1.06 0.97 0.87 0.78
0.60 0.65 0.71 0.73 0.63 0.62 0.67 0.82 0.98 1.06 1.14 1.20 1.40 1.44 1.47 1.49 1.45 1.49 1.51 1.52 1.40 1.15 1.17 1.42 1.61 2.01 2.36 2.81 2.74 2.10 1.65 1.43 1.31 1.21 1.08 0.97 0.88 0.80
0.51 0.51 0.55 0.63 0.61 0.66 0.82 1.06 1.26 1.42 1.29 1.25 1.34 1.49 1.50 1.34 1.17 1.25 1.50 1.60 1.44 1.18 1.11 1.36 1.57 1.76 2.08 2.43 2.35 2.02 1.66 1.47 1.31 1.17 1.07 0.95 0.86 0.83
0.56 0.54 0.58 0.59 0.61 0.76 0.93 1.23 1.45 1.56 1.40 1.33 1.46 1.60 1.53 1.42 1.34 1.38 1.58 1.57 1.45 1.39 1.19 1.26 1.42 1.54 1.93 2.07 1.91 1.68 1.58 1.54 1.40 1.25 1.11 0.96 0.82 0.76
0.57 0.64 0.69 0.70 0.67 0.78 0.96 1.19 1.41 1.48 1.43 1.39 1.42 1.47 1.51 1.52 1.42 1.40 1.43 1.40 1.40 1.38 1.13 1.24 1.45 1.55 1.77 1.91 1.81 1.66 1.48 1.44 1.41 1.46 1.40 1.15 0.90 0.77
0.64 0.68 0.70 0.71 0.72 0.86 1.00 1.22 1.43 1.56 1.46 1.33 1.24 1.21 1.23 1.29 1.27 1.15 1.10 1.09 1.14 1.19 1.10 1.20 1.51 1.67 1.66 1.62 1.74 1.67 1.57 1.54 1.46 1.48 1.53 1.39 1.16 1.05
0.57 0.73 0.72 0.67 0.82 1.11 1.28 1.41 1.57 1.65 1.50 1.26 1.18 1.10 1.05 1.03 1.01 1.04 1.00 0.94 0.90 0.89 0.83 0.97 1.28 1.47 1.51 1.52 1.59 1.57 1.68 1.86 1.72 1.64 1.55 1.42 1.29 1.15
0.47 0.66 0.79 0.83 0.99 1.28 1.51 1.62 1.68 1.62 1.40 1.21 1.10 1.03 0.95 0.94 0.95 0.95 0.98 0.95 0.96 0.96 0.86 0.86 1.00 1.22 1.36 1.36 1.43 1.53 1.62 2.01 2.01 1.76 1.60 1.55 1.43 1.29
0.42 0.61 0.81 0.91 1.11 1.34 1.48 1.50 1.46 1.38 1.30 1.14 1.03 0.97 0.95 0.94 0.94 0.92 0.93 0.89 0.91 0.91 0.91 0.90 0.93 1.01 1.08 1.15 1.30 1.42 1.57 1.79 1.83 1.62 1.48 1.56 1.56 1.39
0.45 0.69 0.90 1.00 1.15 1.27 1.35 1.33 1.26 1.19 1.12 1.06 1.01 0.94 0.92 0.92 0.94 0.89 0.84 0.84 0.87 0.83 0.78 0.77 0.76 0.80 0.89 1.04 1.20 1.29 1.36 1.54 1.57 1.42 1.24 1.33 1.53 1.47
0.52 0.74 0.92 1.06 1.16 1.19 1.21 1.18 1.13 1.09 1.01 0.96 0.93 0.89 0.85 0.85 0.85 0.79 0.73 0.72 0.72 0.69 0.63 0.60 0.57 0.58 0.71 1.05 1.23 1.25 1.21 1.26 1.31 1.27 1.19 1.20 1.40 1.49
0.61 0.78 0.90 0.96 1.03 1.08 1.08 1.07 1.04 0.97 0.90 0.88 0.91 0.89 0.81 0.74 0.68 0.66 0.65 0.62 0.60 0.55 0.51 0.49 0.48 0.53 0.65 0.89 1.23 1.32 1.14 0.98 0.98 1.05 1.04 1.07 1.21 1.26
0.63 0.73 0.80 0.84 0.89 0.93 0.93 0.91 0.90 0.87 0.81 0.79 0.80 0.82 0.80 0.71 0.63 0.56 0.53 0.47 0.46 0.47 0.50 0.52 0.51 0.44 0.44 0.55 0.82 1.05 1.06 0.99 0.90 0.87 0.82 0.89 0.92 0.85
0.57 0.65 0.67 0.68 0.70 0.73 0.71 0.67 0.69 0.70 0.69 0.71 0.70 0.70 0.70 0.64 0.56 0.50 0.45 0.43 0.44 0.41 0.41 0.42 0.39 0.36 0.41 0.53 0.73 0.89 0.90 0.81 0.75 0.70 0.66 0.64 0.64 0.73
0.49 0.52 0.56 0.57 0.53 0.52 0.55 0.56 0.58 0.63 0.64 0.65 0.63 0.61 0.58 0.52 0.44 0.39 0.37 0.36 0.35 0.34 0.36 0.41 0.39 0.39 0.42 0.49 0.61 0.68 0.66 0.59 0.55 0.55 0.63 0.66 0.62 0.69